Satellite: NOAA-17
Catalog number: 27453
Epoch time:      04358.23224260
Element set:     180
Inclination:       98.6833 deg
RA of node:        68.2605 deg
Eccentricity:    0.0011749
Arg of perigee:   201.4464 deg
Mean anomaly:     158.6265 deg
Mean motion:   14.23611415 rev/day
Decay rate:       1.82e-06 rev/day^2
Epoch rev:           12980
Checksum:              288

/EX
SB KEPS @ AMSAT  $ORB04358.M
Orbital Elements  04358.MISC

HR AMSAT ORBITAL ELEMENTS FOR MANNED AND MISCELLANEOUS SATELLITES
FROM WA5QGD FORT WORTH,TX December 23, 2004
SEND SUBSCRIBE/UNSUBSCRIBE TO majordomo@amsat.org ONLY
BID: ORB04358.M
TO ALL RADIO AMATEURS BT

Satellite: HUBBLE
Catalog number: 20580
Epoch time:      04357.36214735
Element set:     233
Inclination:       28.4692 deg
RA of node:       340.7535 deg
Eccentricity:    0.0003810
Arg of perigee:   190.1448 deg
Mean anomaly:     169.9044 deg
Mean motion:   14.99502593 rev/day
Decay rate:       8.77e-06 rev/day^2
Epoch rev:           60367
Checksum:              303

Satellite: UARS
Catalog number: 21701
Epoch time:      04357.69956064
Element set:     337
Inclination:       56.9788 deg
RA of node:       185.4210 deg
Eccentricity:    0.0005669
Arg of perigee:    89.0758 deg
Mean anomaly:     271.1145 deg
Mean motion:   15.03714738 rev/day
Decay rate:        5.2e-07 rev/day^2
Epoch rev:           72694
Checksum:              320

Satellite: PO-34
Catalog number: 25520
Epoch time:      04357.37189055
Element set:      76
Inclination:       28.4605 deg
RA of node:        54.1678 deg
Eccentricity:    0.0005357
Arg of perigee:   105.0588 deg
Mean anomaly:     255.0582 deg
Mean motion:   15.15986308 rev/day
Decay rate:       9.75e-06 rev/day^2
Epoch rev:           33972
Checksum:              322

Satellite: ISS
Catalog number: 25544
Epoch time:      04359.01157407
Element set:     429
Inclination:       51.6388 deg
RA of node:        76.7040 deg
Eccentricity:    0.0004277
Arg of perigee:   134.6982 deg
Mean anomaly:     220.7256 deg
Mean motion:   15.71713119 rev/day
Decay rate:     2.1364e-04 rev/day^2
Epoch rev:           34813
Checksum:              291

Satellite: OO-38
Catalog number: 26063
Epoch time:      04358.09006682
Element set:     241
Inclination:      100.2239 deg
RA of node:       179.7305 deg
Eccentricity:    0.0036768
Arg of perigee:   190.2723 deg
Mean anomaly:     169.7711 deg
Mean motion:   14.35690993 rev/day
Decay rate:        4.6e-07 rev/day^2
Epoch rev:           25702
Checksum:              307

Satellite: NO-45
Catalog number: 26932
Epoch time:      04357.69204419
Element set:    0923
Inclination:      067.0586 deg
RA of node:       321.9959 deg
Eccentricity:    0.0008068
Arg of perigee:   280.0159 deg
Mean anomaly:     080.0059 deg
Mean motion:   14.29463344 rev/day
Decay rate:       3.10e-06 rev/day^2
Epoch rev:           16857
Checksum:              319

/EX



----
Via the keps mailing list at AMSAT.ORG courtesy of AMSAT-NA.
To unsubscribe, send "unsubscribe keps" to Majordomo@amsat.org

--- ViaMAIL!/WC v1.60d
 * Origin: Chowdanet (401-331-0615) telnet://chowdanet.com  (1:323/120)